RH
15 25 29 26 24 25 64 82 90 90 86 86 96 92 95 70 49 46 43 42 44 50 48 48 50 55 57 56 63 59 65 66 69 68 72 71 73 73 74 72 66 66 74 70
20 27 22 20 20 30 73 88 93 85 85 79 93 92 80 82 82 73 52 43 44 51 52 51 53 58 57 57 64 58 62 60 64 68 72 72 73 76 79 76 73 70 75 73
22 18 16 16 21 62 70 72 90 80 82 85 90 94 83 79 86 70 69 54 42 52 55 54 54 54 56 52 63 63 59 60 62 71 73 74 72 75 78 79 78 69 72 78
15 12 13 14 22 52 80 61 66 84 82 93 90 95 97 89 86 79 69 64 53 45 56 52 53 56 55 52 63 63 63 60 61 64 70 74 74 72 73 64 77 75 74 78
17 12 11 13 13 46 78 58 66 74 90 92 88 90 94 96 86 77 68 63 58 58 60 55 55 55 55 52 55 58 59 66 64 65 68 71 75 74 75 77 74 77 75 75
19 14 10 10 30 53 54 66 71 75 88 91 80 84 92 95 82 67 60 62 55 58 58 60 53 56 56 53 52 55 59 64 63 58 73 71 73 72 66 70 76 73 73 78
20 16 19 50 65 56 65 78 95 90 88 85 88 90 82 74 70 60 56 69 59 59 57 58 61 59 58 58 57 56 60 63 63 60 74 77 66 67 74 76 66 72 72 73
26 27 12 30 58 73 72 55 71 76 94 83 83 88 78 61 54 52 54 55 59 61 56 54 57 57 58 58 60 59 56 68 63 60 67 79 73 72 74 68 69 73 73 72
24 24 15 13 37 53 65 50 44 73 74 84 87 78 70 53 60 56 60 60 63 60 61 55 56 56 59 60 61 56 56 64 60 59 64 75 81 77 70 69 76 72 68 71
21 24 16 16 14 31 40 35 46 60 83 89 88 86 85 60 62 66 68 65 67 57 60 57 50 55 61 64 60 60 62 64 64 66 64 63 62 78 79 76 70 72 72 69
30 24 24 20 20 19 19 27 31 45 59 79 95 87 70 56 56 69 69 68 68 57 55 58 58 55 55 61 61 62 67 72 67 63 65 77 73 74 82 83 76 68 69 64
28 34 34 26 22 17 17 18 27 34 27 50 56 73 48 54 50 59 62 64 61 54 48 56 62 61 58 60 62 52 69 78 76 65 72 78 78 78 74 77 70 63 60 69
27 37 43 35 31 25 25 21 15 23 26 37 46 64 48 67 60 49 52 52 55 57 59 63 64 65 65 60 49 59 72 73 75 72 81 91 80 63 62 72 71 71 76 71
26 36 38 39 34 32 33 28 26 19 24 21 30 47 64 58 90 82 54 50 57 58 52 56 58 68 68 56 62 63 74 71 71 67 81 83 78 77 71 72 70 73 74 71
28 32 28 27 46 42 39 45 40 36 28 20 24 59 84 77 98 99 80 66 60 57 57 50 59 63 70 71 70 72 70 66 67 62 77 77 73 68 69 76 77 78 76 77
36 38 47 53 42 46 46 50 52 60 64 75 80 93 90 89 88 95 85 65 63 67 64 64 72 81 75 73 70 68 78 79 79 70 73 77 72 71 78 82 81 80 73 74
55 57 60 60 60 46 71 57 61 62 66 78 69 69 90 87 80 86 93 90 100 99 99 92 85 80 75 77 70 63 85 87 89 85 85 77 77 80 79 79 80 77 76 79
56 61 74 68 61 69 55 64 47 59 64 78 81 74 76 74 75 78 80 82 98 99 100 99 100 98 83 80 80 84 97 100 95 94 92 87 83 84 81 85 82 76 73 82
52 66 86 76 81 64 57 54 61 58 61 78 91 86 83 74 89 100 100 92 88 90 93 99 98 100 100 100 92 91 90 85 99 96 92 89 90 87 89 94 86 84 85 86
54 73 76 84 74 68 66 52 47 54 73 74 84 87 95 77 93 96 100 90 88 84 94 97 99 100 100 99 99 98 95 100 100 100 99 100 99 99 94 92 91 88 86 87
70 74 74 86 83 74 64 49 44 68 63 67 69 75 96 97 100 100 100 99 87 85 85 93 98 100 99 100 100 97 100 99 100 100 100 100 98 97 92 90 90 91 89 92
74 83 95 84 76 57 45 49 57 52 63 64 63 67 74 59 57 62 90 82 80 78 93 98 100 99 98 98 100 100 100 100 99 99 100 100 100 100 100 98 93 91 96 97
64 74 91 89 79 53 48 45 44 43 58 60 70 54 46 48 57 72 79 80 82 84 96 97 95 93 95 98 100 100 99 100 100 100 100 100 98 99 100 96 93 92 93 99
46 47 68 56 44 48 43 34 34 33 38 50 56 57 73 80 88 83 74 71 75 76 76 89 94 92 91 92 92 96 96 95 91 86 80 73 77 79 82 78 72 71 80 90
43 35 55 61 46 44 36 32 31 27 29 36 50 66 62 71 72 61 58 61 61 64 67 70 70 72 67 60 54 49 39 35 32 31 30 30 32 31 26 27 28 32 41 42
32 37 56 67 41 38 35 30 30 29 30 32 39 46 57 57 56 60 64 66 64 63 64 68 65 63 43 37 33 31 32 34 32 26 24 23 25 27 28 26 27 30 34 45
Wind_Speed
8 4 4 8 7 0 4 7 10 4 3 6 8 10 5 2 18 16 22 30 33 36 38 34 29 29 24 21 24 19 21 24 21 18 15 17 14 15 10 9 5 5 7 5
4 5 11 8 4 7 11 14 5 3 2 0 2 9 8 8 3 6 16 27 32 27 39 37 34 31 24 23 23 23 21 21 20 19 15 16 18 13 11 9 9 8 7 8
7 12 9 6 4 8 6 8 8 5 6 2 5 4 5 5 8 7 6 20 27 26 40 40 38 32 26 25 25 24 20 20 20 20 16 15 16 15 13 12 9 11 8 5
7 15 10 8 10 6 3 9 15 11 2 1 2 3 7 6 10 4 10 11 23 28 39 39 38 34 28 26 24 23 20 20 19 18 16 15 14 15 12 12 9 11 9 7
10 6 5 8 11 8 6 8 17 8 2 3 4 2 1 3 7 10 11 17 20 23 38 42 39 34 27 23 25 23 20 19 19 19 18 15 13 13 10 12 12 14 13 10
10 18 8 8 2 12 21 16 10 7 1 1 4 2 1 5 13 16 16 21 22 21 30 40 36 33 28 24 23 22 23 21 19 20 19 14 15 16 12 13 11 14 15 15
7 6 5 25 20 8 3 6 4 2 1 4 8 4 6 10 11 16 13 18 27 22 26 30 35 35 31 30 26 23 23 21 19 23 18 16 17 15 10 10 9 13 16 18
2 8 4 8 11 12 13 6 5 7 4 2 8 3 5 4 18 30 25 26 31 23 24 28 23 35 35 32 28 25 22 23 22 23 20 16 15 13 11 10 12 12 14 12
2 6 7 4 8 13 7 5 5 6 3 3 1 4 9 3 2 10 24 27 28 28 20 25 21 24 35 35 31 26 21 22 23 22 20 20 15 15 15 12 10 6 9 10
6 4 5 7 6 12 13 8 3 2 5 3 2 2 6 9 5 6 14 25 29 35 25 24 29 29 30 35 34 29 24 22 22 23 21 21 19 18 16 13 10 7 6 7
5 4 8 2 1 8 2 4 4 5 5 5 5 5 9 13 9 13 17 25 33 38 34 25 28 30 30 34 32 29 27 27 25 25 22 21 19 18 17 13 11 9 9 8
3 3 2 8 7 8 7 8 6 5 3 2 4 6 7 14 12 21 21 23 27 37 38 27 28 26 35 32 37 25 30 30 28 23 22 21 19 19 18 17 13 11 10 10
5 3 4 10 7 8 6 5 1 4 3 5 5 5 2 9 7 4 15 19 22 25 30 33 29 28 29 29 18 31 30 28 25 21 22 22 17 20 19 16 14 12 11 10
0 3 4 3 6 5 5 12 9 3 3 2 5 5 4 7 4 5 11 13 16 21 28 31 31 30 29 28 27 37 36 24 28 24 26 24 21 20 20 18 18 16 14 11
3 2 3 2 4 5 10 15 15 6 4 5 5 6 6 9 10 13 21 15 19 26 23 31 28 31 34 33 29 35 36 32 28 30 27 22 20 16 18 21 19 15 16 18
4 2 3 5 7 8 5 19 14 10 13 4 5 2 3 20 25 21 25 25 21 21 33 34 35 33 29 30 24 28 32 27 30 31 31 24 19 14 16 19 17 15 15 17
3 3 3 1 5 4 7 10 11 1 11 6 4 3 7 6 12 16 17 24 26 25 24 25 29 31 31 31 22 30 34 29 37 34 22 22 17 16 16 17 15 13 13 14
1 3 3 1 5 4 5 4 0 6 10 11 8 7 5 12 13 15 17 19 19 21 20 20 19 25 30 33 20 35 43 29 25 20 23 22 19 17 14 11 11 11 10 9
4 4 4 3 1 1 3 3 2 4 5 8 7 10 13 17 26 21 16 18 13 10 8 9 13 18 23 20 29 28 29 23 19 18 18 18 17 16 13 12 11 9 9 8
5 8 4 2 4 5 6 4 7 1 2 3 6 13 19 16 8 4 17 16 16 12 7 4 8 11 11 13 16 19 24 21 18 17 16 19 14 16 12 10 9 9 9 8
4 4 4 1 1 4 5 4 12 4 3 11 9 18 28 16 15 10 10 15 11 8 4 4 8 8 8 12 13 14 13 15 15 17 17 19 13 14 14 11 11 10 10 11
3 4 3 2 1 1 10 3 6 3 7 18 15 18 23 23 15 4 4 8 7 5 8 8 9 10 9 8 8 9 10 11 13 13 13 15 16 16 14 12 10 11 11 11
1 6 7 8 5 5 5 9 15 16 18 13 17 20 27 28 24 23 15 9 9 9 9 8 7 8 10 11 9 9 9 9 10 11 12 11 11 11 12 13 13 12 12 11
3 7 4 3 3 4 8 25 19 21 24 20 16 24 24 25 24 22 18 9 8 9 10 5 5 7 7 8 8 7 7 7 8 8 8 8 8 8 9 10 10 10 12 13
5 4 6 2 2 1 10 16 14 16 16 20 25 14 16 21 21 21 15 10 6 7 7 8 4 4 5 6 6 7 7 7 7 7 6 5 5 5 6 6 6 7 7 8
3 6 4 5 11 5 15 14 9 9 10 12 13 18 17 15 17 19 21 17 11 8 5 6 5 3 1 3 6 6 5 4 3 3 3 3 3 5 6 7 7 7 8 9
Wind_Direction
268 101 213 233 223 137 81 59 104 103 274 66 17 319 352 37 174 171 183 157 155 161 166 169 168 168 161 158 161 157 162 174 174 165 157 166 163 168 170 162 136 160 172 169
12 224 224 228 262 278 102 118 98 75 265 39 130 277 316 324 65 112 136 161 158 159 162 170 168 168 170 168 166 162 170 173 179 181 172 172 182 173 182 177 167 165 175 196
184 237 224 217 243 153 166 139 167 154 157 183 132 269 290 277 269 162 114 153 162 160 167 172 171 176 176 178 178 178 175 176 185 183 181 180 185 185 188 183 187 177 176 199
219 252 236 230 207 147 123 142 130 133 132 323 43 215 190 224 257 272 186 174 161 166 178 178 180 179 183 184 181 181 182 186 187 196 194 191 201 198 207 193 188 185 196 188
260 295 248 229 216 144 147 137 99 106 107 193 215 190 72 174 247 243 220 202 174 152 179 182 185 186 184 184 184 188 185 194 202 204 205 199 199 206 214 219 217 199 188 209
248 268 201 214 99 130 131 104 77 92 20 343 223 272 263 212 223 230 233 201 187 171 179 187 191 189 187 187 188 191 195 198 205 199 203 208 205 203 211 215 209 211 207 198
332 283 90 102 92 90 89 85 58 32 239 232 158 263 232 185 228 238 220 179 192 186 168 180 192 193 191 192 191 190 196 197 196 197 205 204 209 203 207 219 214 197 203 209
248 321 133 172 156 173 188 161 155 167 200 156 152 227 260 167 229 227 224 202 194 192 180 178 178 197 200 199 195 196 198 205 203 202 202 205 207 204 209 208 194 205 203 204
215 271 310 289 151 140 229 235 167 103 28 119 273 314 277 279 324 187 187 184 198 198 189 196 184 188 201 204 198 205 202 209 206 203 198 196 197 206 205 201 205 205 201 223
239 277 263 292 118 212 153 172 68 23 141 120 72 276 237 269 208 183 181 178 186 202 196 196 200 193 196 205 200 205 215 215 212 207 206 200 199 200 208 208 203 198 203 205
339 125 283 336 103 209 59 112 75 122 143 142 153 236 232 222 197 173 182 186 186 191 200 194 199 201 204 205 202 207 209 224 217 208 205 198 198 203 216 221 222 211 213 217
306 133 291 242 281 243 159 178 140 129 243 221 173 251 226 214 199 164 180 193 194 192 193 204 194 192 200 199 204 231 213 216 219 210 206 204 204 217 217 225 227 232 224 213
322 8 1 346 348 13 40 359 260 137 82 201 151 257 241 30 64 212 168 187 191 177 185 202 199 201 201 206 220 214 209 209 215 218 215 210 212 212 210 216 225 223 220 218
312 83 138 176 252 259 351 339 343 116 115 191 219 218 99 93 76 126 188 193 199 199 198 207 210 213 210 221 212 226 213 220 219 227 220 222 217 208 214 223 227 231 232 230
118 219 225 141 3 13 45 15 356 10 282 157 245 187 140 143 124 124 150 174 205 214 207 211 224 225 213 206 203 213 222 239 245 223 215 204 211 218 232 231 221 219 229 243
7 298 32 1 358 25 40 16 20 29 356 4 96 207 212 143 134 137 154 163 179 195 208 209 208 207 204 209 225 236 232 241 237 224 215 202 220 232 225 221 233 241 243 246
79 88 54 241 340 344 20 359 20 104 15 305 240 258 151 176 162 150 145 154 153 162 175 194 211 219 212 223 243 205 224 232 225 223 207 217 219 217 223 227 221 232 240 241
135 98 97 271 0 134 208 242 166 70 21 5 14 52 31 42 68 128 139 148 146 146 148 154 182 200 202 211 199 208 231 218 206 210 211 209 206 218 220 206 203 213 228 222
151 118 63 101 95 303 305 344 30 42 351 349 18 26 54 92 86 55 121 133 130 125 147 176 187 178 181 186 206 206 209 204 190 187 187 197 204 210 203 199 209 209 209 210
61 84 99 119 145 189 224 279 356 123 7 30 47 65 57 71 83 69 115 119 113 97 104 134 178 177 191 190 173 194 208 190 189 192 206 195 200 203 216 203 199 207 214 212
3 22 97 53 249 285 253 307 350 82 239 146 128 104 85 78 82 90 111 105 92 83 80 107 146 154 154 167 177 194 190 196 199 189 211 190 197 212 209 204 210 221 222 217
154 108 32 355 353 263 193 126 100 255 150 139 135 129 126 127 94 70 53 67 56 51 116 129 142 137 141 149 156 169 176 174 180 187 212 203 195 198 197 206 211 208 213 212
132 166 173 185 219 261 316 93 114 130 140 147 139 131 134 128 137 149 154 134 100 92 115 131 130 137 143 139 146 160 164 168 175 181 184 187 197 197 204 206 200 204 208 209
225 155 124 103 253 160 132 99 95 85 89 84 150 143 151 159 160 149 135 130 102 56 60 84 127 146 146 138 143 154 158 164 167 169 175 181 188 206 214 218 209 207 215 219
202 129 144 254 302 93 129 116 107 84 80 83 84 165 164 166 158 147 145 147 133 113 78 69 103 140 142 139 138 143 149 157 158 158 161 181 188 200 212 218 226 222 228 229
189 176 127 211 189 161 161 141 136 112 101 86 88 75 156 169 163 166 162 168 161 139 112 116 58 36 141 172 150 159 161 163 170 165 156 185 206 209 224 231 236 245 248 243